{"data":{"norad_id":67212,"intl_designator":"2025-304W","name":"STARLINK-36213","alt_names":[],"object_type":"PAYLOAD","status":"ACTIVE","operator":null,"country":"US","launch_date":"2025-12-17","launch_site_code":"AFWTR","launch_vehicle":null,"mission":null,"orbit_class":"UNKNOWN","rcs_meters":null,"size_class":null,"mass_kg":null,"dimensions":null,"purposes":["comms"],"wikipedia_slug":null,"has_3d_model":false,"image_url":null,"decayed_at":null,"tle_current":{"epoch":"2026-09-20T03:19:22.808352Z","epoch_age_seconds":106692,"freshness":"FRESH","line1":"1 67212U 25304W   26263.13845843  .00002616  00000+0  22695-3 0  9998","line2":"2 67212  70.0019  44.0829 0002861 268.9508  91.1323 14.98335277 43015","mean_motion":14.98335277,"eccentricity":0.0002861,"inclination_deg":70.0019,"raan_deg":44.0829,"arg_perigee_deg":268.9508,"mean_anomaly_deg":91.1323,"bstar":0.00022695,"rev_number":4301,"period_min":96.10666064562,"perigee_km":570.05112678778,"apogee_km":574.02801782245,"semimajor_km":6950.1765723051,"source":"CELESTRAK","updated_at":"2026-09-20T09:00:43.483613Z"}}}